Nausori, Fiji

6:46 AM +12 on May 26, 2017 (GMT +1200)
Nausori International

Weather History for NFNA - November, 2012

Change the Weather History Date:

Monday, November 12, 2012

  Actual Average Record
Temperature  
Mean Temperature 74 °F -  
Max Temperature 78 °F 85 °F - ()
Min Temperature 71 °F 73 °F - ()
Cooling Degree Days 10    
Growing Degree Days 24 (Base 50)    
Moisture  
Dew Point 69 °F    
Average Humidity 81    
Maximum Humidity 100    
Minimum Humidity 65    
Precipitation  
Precipitation 0.39 in 0.35 in - ()
Sea Level Pressure  
Sea Level Pressure 29.90 in    
Wind  
Wind Speed 6 mph ()    
Max Wind Speed 13 mph    
Max Gust Speed -    
Visibility 13.0 miles    
Events Rain    
T = Trace of Precipitation, MM = Missing Value Source: Averaged Metar Reports

Daily Weather History Graph

Daily Weather History Graph

Search for Another Location

Airport or City:

Trip Planner

Search our weather history database for the weather conditions in past years. The results will help you decide how hot, cold, wet, or windy it might be!

Date:

Astronomy

Nov. 12, 2012 Rise Set
Actual Time 6:22 AM +13 7:17 PM +13
Civil Twilight 5:59 AM +13 7:40 PM +13
Nautical Twilight 5:31 AM +13 8:08 PM +13
Astronomical Twilight 5:04 AM +13 8:35 PM +13
Moon 4:29 AM +13 (11/12) 5:26 PM +13 (11/12)
Length of Visible Light 13h 41m
Length of Day
12h 55m
Waning Crescent, 6% of the Moon is Illuminated
Nov 12
Waning Crescent
Nov 14
New
Nov 21
First Quarter
Nov 29
Full
Dec 7
Last Quarter

Hourly Weather History & Observations

Time (+13) Temp. Dew Point Humidity Pressure Visibility Wind Dir Wind Speed Gust Speed Precip Events Conditions
12:00 AM 73.4 °F 68.0 °F 83% 29.95 in 24.9 mi East 5.8 mph - N/A   Mostly Cloudy
1:00 AM 75.2 °F 68.0 °F 78% 29.95 in 24.9 mi East 8.1 mph - N/A Rain Light Rain Showers
2:00 AM 73.4 °F 68.0 °F 83% 29.92 in 9.3 mi East 5.8 mph - N/A Rain Light Rain Showers
3:00 AM 73.4 °F 68.0 °F 83% 29.92 in 12.4 mi East 6.9 mph - N/A   Overcast
4:00 AM 72 °F 68 °F 83% 29.91 in 12 mi ESE 5.8 mph - - Rain Light Rain Showers
4:00 AM 73.4 °F 68.0 °F 83% 29.89 in 18.6 mi ESE 5.8 mph - N/A   Overcast
7:00 AM 71 °F 70 °F 97% 29.93 in 12 mi Calm Calm - - Rain Light Rain Showers
8:00 AM 73.4 °F 69.8 °F 88% 29.92 in 12.4 mi Calm Calm - N/A   Mostly Cloudy
9:00 AM 73.4 °F 71.6 °F 94% 29.95 in 6.2 mi Calm Calm - N/A Rain Light Rain Showers
10:00 AM 74 °F 71 °F 86% 29.95 in 6 mi Calm Calm - - Rain Light Rain Showers
10:00 AM 75.2 °F 69.8 °F 83% 29.95 in 9.3 mi Calm Calm - N/A Rain Light Rain Showers
11:00 AM 77.0 °F 68.0 °F 74% 29.92 in 18.6 mi East 10.4 mph - N/A Rain Light Rain Showers
12:00 PM 77.0 °F 68.0 °F 74% 29.89 in 24.9 mi East 12.7 mph - N/A   Mostly Cloudy
1:00 PM 78 °F 68 °F 65% 29.89 in 12 mi ESE 11.5 mph - -   Mostly Cloudy
1:00 PM 77.0 °F 68.0 °F 74% 29.89 in 24.9 mi ESE 11.5 mph - N/A   Mostly Cloudy
2:00 PM 78.8 °F 69.8 °F 74% 29.86 in 24.9 mi East 9.2 mph - N/A   Mostly Cloudy
3:00 PM 78.8 °F 69.8 °F 74% 29.86 in 24.9 mi East 11.5 mph - N/A   Mostly Cloudy
4:00 PM 78 °F 70 °F 69% 29.85 in 12 mi ESE 11.5 mph - -   Partly Cloudy
4:00 PM 78.8 °F 69.8 °F 74% 29.83 in 24.9 mi ESE 11.5 mph - N/A   Mostly Cloudy
5:00 PM 78.8 °F 69.8 °F 74% 29.83 in 24.9 mi East 12.7 mph - N/A   Scattered Clouds
6:00 PM 77.0 °F 69.8 °F 78% 29.83 in 24.9 mi East 11.5 mph - N/A   Mostly Cloudy
7:00 PM 77.0 °F 66.2 °F 69% 29.86 in 24.9 mi East 8.1 mph - N/A   Mostly Cloudy
8:00 PM 77.0 °F 69.8 °F 78% 29.89 in 24.9 mi East 6.9 mph - N/A   Mostly Cloudy
9:00 PM 75.2 °F 71.6 °F 89% 29.92 in 18.6 mi East 11.5 mph - N/A Rain Light Rain Showers
10:00 PM 73 °F 72 °F 97% 29.94 in 12 mi Calm Calm - - Rain Light Rain Showers
10:00 PM 73.4 °F 71.6 °F 94% 29.92 in 18.6 mi Calm Calm - N/A Rain Light Rain Showers
11:00 PM 71.6 °F 71.6 °F 100% 29.95 in 18.6 mi Calm Calm - N/A   Mostly Cloudy